Flag for Canada

Past Weather in 43°45'18.7"N, 79°27'59.6"W, Canada — Yesterday and Last 2 Weeks

Now
68 °F

Scattered clouds.


Feels Like: 68 °F
Forecast: 76 / 61 °F
Wind: 13 mph from Southwest

Location: Toronto Pearson International Airport

Current Time: May 25, 2020 at 7:32:33 am

Latest Report: May 25, 2020 at 6:00 am


Visibility: 15 mi

Pressure: 29.99 "Hg

Humidity: 88%

Dew Point: 64 °F

Location of 43°45'18.7"N, 79°27'59.6"WLocation

Past Weather in 43°45'18.7"N, 79°27'59.6"W — Graph

°F

43°45'18.7"N, 79°27'59.6"W Temperature Yesterday

Maximum temperature yesterday: 79 °F (at 4:00 pm)
Minimum temperature yesterday: 61 °F (at 5:00 am)
Average temperature yesterday: 68 °F

High & Low Weather Summary for the Past Weeks

 TemperatureHumidityPressure
High79 °F (May 24, 4:00 pm)100% (May 11, 8:21 am)30.37 "Hg (May 11, 8:21 am)
Low27 °F (May 12, 4:00 am)19% (May 21, 4:00 pm)29.77 "Hg (May 15, 1:00 pm)
Average54 °F64%30.09 "Hg
* Reported May 10 6:00 am — May 25 6:00 am, 43°45'18.7"N, 79°27'59.6"W. Weather by CustomWeather, © 2020

Note: Actual official high and low records may vary slightly from our data, if they occured in-between our weather recording intervals... More about our weather records

43°45'18.7"N, 79°27'59.6"W Weather History for the Previous 24 Hours

Scroll right to see more
 ConditionsComfort  
Time TempWeatherWind HumidityBarometerVisibility
6:00 am
Mon, May 25
68 °FScattered clouds.13 mph88%29.99 "Hg15 mi
5:00 am70 °FPassing clouds.10 mph83%29.97 "Hg15 mi
4:00 am68 °FPassing clouds.6 mph88%29.95 "Hg15 mi
3:00 am70 °FPassing clouds.8 mph78%29.94 "Hg15 mi
2:33 am70 °FPassing clouds.12 mph83%29.94 "Hg15 mi
2:00 am66 °FPartly cloudy.3 mph78%29.93 "Hg15 mi
1:40 am70 °FPassing clouds.7 mph78%29.93 "Hg15 mi
1:11 am68 °FLight rain. Partly cloudy.5 mph78%29.92 "Hg15 mi
1:00 am70 °FPartly cloudy.6 mph73%29.93 "Hg15 mi
12:00 am66 °FPartly cloudy.5 mph73%29.93 "Hg15 mi
11:00 pm
Sun, May 24
64 °FPartly cloudy.2 mph78%29.93 "Hg15 mi
10:00 pm66 °FPartly cloudy.3 mph73%29.94 "Hg15 mi
9:00 pm66 °FPartly cloudy.9 mph73%29.92 "Hg15 mi
8:00 pm70 °FBroken clouds.13 mph64%29.93 "Hg15 mi
7:00 pm72 °FPartly sunny.12 mph69%29.94 "Hg15 mi
6:00 pm75 °FScattered clouds.16 mph61%29.95 "Hg15 mi
5:00 pm75 °FScattered clouds.13 mph65%29.97 "Hg15 mi
4:00 pm79 °FPassing clouds.12 mph58%29.98 "Hg15 mi
3:00 pm77 °FPassing clouds.10 mph65%30.01 "Hg15 mi
2:00 pm77 °FPartly sunny.12 mph61%30.02 "Hg15 mi
1:00 pm75 °FScattered clouds.13 mph65%30.03 "Hg15 mi
12:00 pm73 °FScattered clouds.13 mph69%30.05 "Hg15 mi
11:00 am70 °FScattered clouds.8 mph73%30.07 "Hg15 mi
10:00 am68 °FPassing clouds.7 mph78%30.07 "Hg15 mi
9:00 am66 °FPassing clouds.6 mph64%30.09 "Hg15 mi
8:00 am64 °FScattered clouds.5 mph60%30.08 "Hg15 mi
7:00 am61 °FScattered clouds.3 mph63%30.08 "Hg15 mi
Weather by CustomWeather, © 2020

See weather overview

Advertising